Location: Eferding
(48.3167°N, 14.0167°E)
Time: 06:10:23
(UTC+00:00)

Cosmos 1633 Rocket - Pass Details

Date: 12 November 2019
Orbit: 608 x 623 km, 82.5° (Epoch: 06 December)

Event Time Altitude Azimuth Distance (km) Brightness Sun altitude
Rises 16:57:49 0° 357° (N) 2,898 6.4 -14.7°
Reaches altitude 10° 17:00:13 10° 6° (N) 1,990 5.5 -15.1°
Maximum altitude 17:04:16 35° 73° (ENE) 1,004 3.6 -15.8°
Enters shadow 17:08:04 11° 139° (SE) 1,895 5.2 -16.4°
